PLATFORM,ARGOS_ID,DATE (YYYY/MM/DD HH:MI:SS),LATITUDE (degree_north),LONGITUDE (degree_east),DEPH LEVEL1(meter),TEMP LEVEL1(degree_Celsius),DEPH LEVEL2(meter),NSCT LEVEL2(meter/second),EWCT LEVEL2(meter/second),QC,SVP_RCBN_Number,SVP_GNRL_ImmPercent,SVP_GNRL_BattVolt
61784,72510,2011/05/13 16:30:12,42.1856,9.6162,0.5,19.64,50,,,0011171799,1,15,12.5
61784,72510,2011/05/13 17:00:12,42.1815,9.6157,0.5,19.48,50,-0.253277,-0.022888,0011171700,1,12,12.5
61784,72510,2011/05/13 18:00:52,42.1736,9.6150,0.5,19.4,50,-0.24133,-0.015847,0011171700,1,15,12.5
61784,72510,2011/05/13 18:30:11,42.1698,9.6147,0.5,19.4,50,-0.240216,-0.014055,0011171700,1,15,12.5
61784,72510,2011/05/13 19:00:11,42.1698,9.6147,0.5,19.4,50,0,0,0011171700,3,15,12.5
61784,72510,2011/05/13 19:30:14,42.1659,9.6142,0.5,19.32,50,-0.240521,-0.022855,0011171700,3,17,12.5
61784,72510,2011/05/13 20:00:11,42.1580,9.6135,0.5,19.32,50,-0.488837,-0.032107,0011171700,3,14,12.5
61784,72510,2011/05/13 20:30:33,42.1540,9.6134,0.5,19.4,50,-0.244116,-0.004524,0011171700,3,14,12.5
61784,72510,2011/05/13 21:00:33,42.1540,9.6134,0.5,19.4,50,0,0,0011171700,1,14,12.5
61784,72510,2011/05/13 21:30:10,42.1460,9.6131,0.5,19.4,50,-0.500596,-0.013918,0011171700,4,15,12.5
61784,72510,2011/05/13 22:00:12,42.1421,9.6126,0.5,19.32,50,-0.240655,-0.022876,0011171700,4,12,12.5
61784,72510,2011/05/13 22:30:11,42.1381,9.6123,0.5,19.16,50,-0.247237,-0.01375,0011171700,5,12,12.5
61784,72510,2011/05/13 23:00:18,42.1333,9.6142,0.5,19.08,50,-0.295371,0.086701,0011171700,5,14,12.5
61784,72510,2011/05/13 23:30:34,42.1303,9.6124,0.5,19,50,-0.183692,-0.081736,0011171700,4,14,12.5
61784,72510,2011/05/14 00:00:10,42.1264,9.6124,0.5,18.92,50,-0.244178,0,0011171700,4,12,12.5
61784,72510,2011/05/14 00:30:12,42.1223,9.6125,0.5,18.92,50,-0.252996,0.004577,0011171700,5,12,12.5
61784,72510,2011/05/14 01:00:10,42.1184,9.6123,0.5,18.84,50,-0.24119,-0.009174,0011171700,5,12,12.5
61784,72510,2011/05/14 01:30:10,42.1146,9.6120,0.5,18.84,50,-0.234745,-0.013747,0011171700,5,12,12.5
61784,72510,2011/05/14 02:00:10,42.1107,9.6117,0.5,18.84,50,-0.240922,-0.013748,0011171700,5,17,12.5
61784,72510,2011/05/14 02:30:17,42.1066,9.6118,0.5,18.92,50,-0.252296,0.004565,0011171700,4,17,12.5
61784,72510,2011/05/14 03:00:34,42.1024,9.6120,0.5,18.84,50,-0.257027,0.009081,0011171700,4,15,12.5
61784,72510,2011/05/14 03:30:34,42.0984,9.6124,0.5,18.92,50,-0.2471,0.018334,0011171700,4,15,12.5
61784,72510,2011/05/14 04:00:10,42.0940,9.6129,0.5,18.92,50,-0.275483,0.023229,0011171700,4,15,12.5
61784,72510,2011/05/14 04:30:12,42.0897,9.6133,0.5,19,50,-0.265338,0.018316,0011171700,3,15,12.5
61784,72510,2011/05/14 05:00:11,42.0850,9.6127,0.5,18.84,50,-0.290504,-0.027522,0011171700,3,15,12.5
61784,72510,2011/05/14 05:30:34,42.0850,9.6127,0.5,18.84,50,0,0,0011171700,4,15,12.5
61784,72510,2011/05/14 06:00:34,42.0749,9.6115,0.5,18.52,50,-0.623927,-0.05502,0011171700,4,17,12.5
61784,72510,2011/05/14 06:30:11,42.0699,9.6103,0.5,18.68,50,-0.312873,-0.055739,0011171700,4,17,12.5
61784,72510,2011/05/14 07:00:10,42.0650,9.6085,0.5,18.68,50,-0.302866,-0.082592,0011171700,4,14,12.5
61784,72510,2011/05/14 07:30:11,42.0599,9.6063,0.5,18.76,50,-0.314877,-0.100842,0011171700,4,14,12.5
61784,72510,2011/05/14 08:00:13,42.0552,9.6042,0.5,18.84,50,-0.29002,-0.096212,0011171700,4,14,12.5
61784,72510,2011/05/14 08:30:34,42.0505,9.6021,0.5,19.08,50,-0.286994,-0.095215,0011171700,4,14,12.5
61784,72510,2011/05/14 09:00:10,42.0459,9.6001,0.5,19.24,50,-0.288005,-0.092986,0011171700,4,14,12.5
61784,72510,2011/05/14 09:30:11,42.0412,9.5973,0.5,19.32,50,-0.290181,-0.128382,0011171700,4,15,12.5
61784,72510,2011/05/14 10:00:10,42.0365,9.5943,0.5,19.64,50,-0.290504,-0.137716,0011171700,3,19,12.5
61784,72510,2011/05/14 10:30:34,42.0320,9.5908,0.5,19.72,50,-0.27433,-0.158478,0011171700,3,19,12.5
61784,72510,2011/05/14 11:00:10,42.0277,9.5872,0.5,19.64,50,-0.269222,-0.167423,0011171700,1,19,12.5
61784,72510,2011/05/14 11:30:10,42.0237,9.5837,0.5,19.8,50,-0.2471,-0.160612,0011171700,3,19,12.5
61784,72510,2011/05/14 12:00:10,42.0197,9.5800,0.5,19.72,50,-0.2471,-0.169801,0011171700,3,20,12.5
61784,72510,2011/05/14 12:30:17,42.0158,9.5764,0.5,19.96,50,-0.239989,-0.164582,0011171700,3,20,12.5
61784,72510,2011/05/14 13:00:10,42.0158,9.5764,0.5,19.96,50,0,0,0011171700,1,20,12.5
61784,72510,2011/05/14 13:00:54,42.0122,9.5729,0.5,20.28,50,-9.09777,-6.57171,0014471700,1,17,12.5
61784,72510,2011/05/14 13:30:12,42.0088,9.5699,0.5,20.52,50,-0.215053,-0.14099,0011171700,1,17,12.5
61784,72510,2011/05/14 13:30:54,42.0122,9.5729,0.5,20.28,50,9.00149,5.90145,0014471700,1,17,12.5
61784,72510,2011/05/14 14:00:11,42.0056,9.5667,0.5,20.44,50,-0.417693,-0.291553,0011171700,1,17,12.5
61784,72510,2011/05/14 14:30:12,42.0029,9.5640,0.5,20.52,50,-0.1667,-0.123874,0011171700,1,17,12.5
61784,72510,2011/05/14 15:00:36,41.9999,9.5617,0.5,20.36,50,-0.182886,-0.104196,0011171700,1,22,12.5
61784,72510,2011/05/14 15:30:12,41.9975,9.5599,0.5,20.36,50,-0.150263,-0.083752,0011171700,3,22,12.5
61784,72510,2011/05/14 16:00:12,41.9949,9.5581,0.5,20.2,50,-0.160615,-0.082639,0011171700,3,19,12.5
61784,72510,2011/05/14 16:30:12,41.9922,9.5561,0.5,19.88,50,-0.166792,-0.091825,0011171700,3,19,12.5
61784,72510,2011/05/14 17:00:12,41.9894,9.5537,0.5,19.72,50,-0.17297,-0.110195,0011171700,3,22,12.5
61784,72510,2011/05/14 17:30:12,41.9863,9.5508,0.5,19.72,50,-0.191502,-0.133158,0011171700,3,22,12.5
61784,72510,2011/05/14 18:00:36,41.9834,9.5481,0.5,19.64,50,-0.17679,-0.122349,0011171700,3,22,12.5
61784,72510,2011/05/14 18:30:12,41.9805,9.5452,0.5,19.56,50,-0.181568,-0.13497,0011171700,3,22,12.5
61784,72510,2011/05/14 19:00:12,41.9776,9.5421,0.5,19.48,50,-0.179147,-0.142361,0011171700,3,19,12.5
61784,72510,2011/05/14 19:30:12,41.9748,9.5391,0.5,19.48,50,-0.17297,-0.137775,0011171700,3,19,12.5
61784,72510,2011/05/14 20:00:14,41.9720,9.5365,0.5,19.4,50,-0.172778,-0.119277,0011171700,3,17,12.5
61784,72510,2011/05/14 20:30:36,41.9695,9.5338,0.5,19.32,50,-0.152573,-0.122511,0011171700,4,17,12.5
61784,72510,2011/05/14 21:00:12,41.9674,9.5315,0.5,19.24,50,-0.13148,-0.107068,0011171700,4,20,12.5
61784,72510,2011/05/14 21:30:24,41.9651,9.5290,0.5,19.32,50,-0.141141,-0.11407,0011171700,3,20,12.5
61784,72510,2011/05/14 22:00:35,41.9625,9.5269,0.5,19.32,50,-0.159639,-0.095875,0011171700,3,17,12.5
61784,72510,2011/05/14 22:30:35,41.9600,9.5247,0.5,19.32,50,-0.154437,-0.101059,0011171700,4,17,12.5
61784,72510,2011/05/14 23:00:12,41.9573,9.5226,0.5,19.24,50,-0.168951,-0.097717,0011171700,4,19,12.5
61784,72510,2011/05/14 23:30:12,41.9573,9.5226,0.5,19.24,50,0,0,0011171700,1,19,12.5
61784,72510,2011/05/15 00:00:12,41.9547,9.5206,0.5,19.24,50,-0.160615,-0.091879,0011171700,1,19,12.5
61784,72510,2011/05/15 00:00:52,41.9520,9.5187,0.5,19.24,50,-7.50566,-3.92799,0014471700,1,20,12.5
61784,72510,2011/05/15 00:30:13,41.9493,9.5169,0.5,19.16,50,-0.170486,-0.084529,0011171700,1,20,12.5
61784,72510,2011/05/15 01:00:12,41.9467,9.5151,0.5,19.08,50,-0.160704,-0.082747,0011171700,4,20,12.5
61784,72510,2011/05/15 01:30:05,41.9441,9.5134,0.5,19.08,50,-0.161242,-0.078415,0011171700,4,20,12.5
61784,72510,2011/05/15 02:00:34,41.9441,9.5134,0.5,19.08,50,0,0,0011171700,5,20,12.5
61784,72510,2011/05/15 02:30:12,41.9413,9.5117,0.5,19,50,-0.17511,-0.07908,0011171700,5,19,12.5
61784,72510,2011/05/15 03:00:12,41.9359,9.5085,0.5,19,50,-0.333585,-0.147046,0011171700,5,22,12.5
61784,72510,2011/05/15 03:30:11,41.9331,9.5066,0.5,19,50,-0.173066,-0.087363,0011171700,5,22,12.5
61784,72510,2011/05/15 04:00:12,41.9331,9.5066,0.5,19,50,0,0,0011171700,5,22,12.5
61784,72510,2011/05/15 04:30:12,41.9305,9.5049,0.5,19,50,-0.160615,-0.078127,0011171700,5,19,12.5
61784,72510,2011/05/15 05:00:12,41.9255,9.5019,0.5,18.92,50,-0.308875,-0.137879,0011171700,3,20,12.5
61784,72510,2011/05/15 05:30:12,41.9230,9.5004,0.5,18.92,50,-0.154437,-0.068944,0011171700,1,22,12.5
61784,72510,2011/05/15 06:00:12,41.9205,9.4990,0.5,18.92,50,-0.154437,-0.06435,0011171700,1,20,12.5
61784,72510,2011/05/15 06:30:13,41.9180,9.4972,0.5,19,50,-0.154352,-0.082693,0011171700,1,20,12.5
61784,72510,2011/05/15 07:00:24,41.9153,9.4955,0.5,19,50,-0.165779,-0.077671,0011171700,3,20,12.5
61784,72510,2011/05/15 07:30:12,41.9126,9.4938,0.5,19.08,50,-0.167912,-0.078673,0011171700,3,20,12.5
61784,72510,2011/05/15 08:00:54,41.9097,9.4921,0.5,19.08,50,-0.175063,-0.07637,0011171700,3,22,12.5
61784,72510,2011/05/15 08:30:12,41.9068,9.4909,0.5,19,50,-0.183427,-0.056487,0011171700,3,22,12.5
61784,72510,2011/05/15 09:00:12,41.9039,9.4898,0.5,19,50,-0.179147,-0.050574,0011171700,3,22,12.5
61784,72510,2011/05/15 09:30:18,41.9010,9.4886,0.5,19,50,-0.178552,-0.05499,0011171700,1,22,12.5
61784,72510,2011/05/15 10:00:12,41.8982,9.4872,0.5,19,50,-0.173548,-0.064587,0011171700,1,20,12.5
61784,72510,2011/05/15 10:30:24,41.8952,9.4859,0.5,19,50,-0.184098,-0.059381,0011171700,1,20,12.5
61784,72510,2011/05/15 11:00:13,41.8922,9.4848,0.5,18.84,50,-0.186464,-0.050894,0011171700,4,23,12.5
61784,72510,2011/05/15 11:30:34,41.8897,9.4835,0.5,18.84,50,-0.152656,-0.059093,0011171700,4,23,12.5
61784,72510,2011/05/15 12:00:13,41.8873,9.4821,0.5,18.84,50,-0.15001,-0.065143,0011171700,3,25,12.5
61784,72510,2011/05/15 12:30:12,41.8849,9.4808,0.5,18.84,50,-0.148342,-0.05982,0011171700,3,26,12.5
61784,72510,2011/05/15 13:00:11,41.8824,9.4794,0.5,18.84,50,-0.154523,-0.064424,0011171700,4,31,12.5
61784,72510,2011/05/15 13:30:13,41.8794,9.4782,0.5,18.92,50,-0.185119,-0.055131,0011171700,4,31,12.5
61784,72510,2011/05/15 14:00:13,41.8762,9.4767,0.5,18.92,50,-0.19768,-0.068994,0011171700,3,31,12.5
61784,72510,2011/05/15 14:30:13,41.8728,9.4752,0.5,18.92,50,-0.210035,-0.068997,0011171700,3,31,12.5
61784,72510,2011/05/15 15:00:35,41.8694,9.4730,0.5,18.92,50,-0.207499,-0.099979,0011171700,1,31,12.5
61784,72510,2011/05/15 15:30:11,41.8660,9.4710,0.5,18.92,50,-0.212873,-0.093249,0011171700,1,31,12.5
61784,72510,2011/05/15 16:00:14,41.8629,9.4693,0.5,18.84,50,-0.191184,-0.078079,0011171700,1,25,12.5
61784,72510,2011/05/15 16:30:18,41.8600,9.4678,0.5,18.84,50,-0.17875,-0.068858,0011171700,3,25,12.5
61784,72510,2011/05/15 17:00:12,41.8568,9.4661,0.5,19,50,-0.198341,-0.078478,0011171700,3,28,12.5
61784,72510,2011/05/15 17:30:12,41.8536,9.4646,0.5,19,50,-0.19768,-0.069018,0011171700,1,28,12.5
61784,72510,2011/05/15 18:00:59,41.8504,9.4633,0.5,19,50,-0.19265,-0.058296,0011171700,1,26,12.5
61784,72510,2011/05/15 18:30:11,41.8504,9.4633,0.5,19,50,0,0,0011171700,4,26,12.5
61784,72510,2011/05/15 19:00:12,41.8475,9.4622,0.5,19.08,50,-0.179048,-0.05059,0011171700,4,25,12.5
61784,72510,2011/05/15 19:30:35,41.8407,9.4594,0.5,18.92,50,-0.41477,-0.12723,0011171700,1,22,12.4
61784,72510,2011/05/15 20:00:11,41.8373,9.4579,0.5,18.84,50,-0.212873,-0.069968,0011171700,3,28,12.5
61784,72510,2011/05/15 20:30:11,41.8338,9.4562,0.5,18.84,50,-0.216212,-0.078245,0011171700,3,28,12.5
61784,72510,2011/05/15 21:00:36,41.8302,9.4545,0.5,18.76,50,-0.219343,-0.077177,0011171700,3,26,12.5
61784,72510,2011/05/15 21:30:13,41.8265,9.4531,0.5,18.76,50,-0.231526,-0.065278,0011171700,1,28,12.5
61784,72510,2011/05/15 22:00:13,41.8226,9.4517,0.5,18.68,50,-0.240922,-0.064448,0011171700,3,33,12.5
61784,72510,2011/05/15 22:30:35,41.8186,9.4502,0.5,18.76,50,-0.244116,-0.068222,0011171700,3,34,12.5
61784,72510,2011/05/15 23:00:35,41.8149,9.4489,0.5,18.68,50,-0.228567,-0.059852,0011171700,3,38,12.5
61784,72510,2011/05/15 23:30:11,41.8110,9.4477,0.5,18.68,50,-0.244178,-0.055998,0011171700,3,38,12.5
61784,72510,2011/05/16 00:00:11,41.8070,9.4464,0.5,18.6,50,-0.2471,-0.059859,0011171700,3,33,12.5
61784,72510,2011/05/16 00:30:18,41.8029,9.4452,0.5,18.6,50,-0.252296,-0.055044,0011171700,3,33,12.5
61784,72510,2011/05/16 01:00:11,41.7988,9.4441,0.5,18.6,50,-0.254266,-0.050854,0011171700,5,28,12.5
61784,72510,2011/05/16 01:30:18,41.7946,9.4432,0.5,18.6,50,-0.25845,-0.041288,0011171700,5,28,12.5
61784,72510,2011/05/16 02:00:36,41.7905,9.4429,0.5,18.6,50,-0.25077,-0.01368,0011171700,4,25,12.5
61784,72510,2011/05/16 02:30:11,41.7862,9.4431,0.5,18.68,50,-0.269374,0.009342,0011171700,3,25,12.5
61784,72510,2011/05/16 03:00:11,41.7814,9.4428,0.5,18.6,50,-0.29652,-0.013819,0011171700,3,28,12.5
61784,72510,2011/05/16 03:30:11,41.7765,9.4426,0.5,18.68,50,-0.302697,-0.009213,0011171700,3,28,12.5
61784,72510,2011/05/16 04:00:16,41.7714,9.4419,0.5,18.6,50,-0.31418,-0.03216,0011171700,3,28,12.5
61784,72510,2011/05/16 04:30:11,41.7662,9.4411,0.5,18.68,50,-0.322125,-0.036962,0011171700,3,28,12.5
61784,72510,2011/05/16 05:00:11,41.7611,9.4404,0.5,18.68,50,-0.315052,-0.032255,0011171700,5,31,12.5
61784,72510,2011/05/16 05:30:34,41.7561,9.4407,0.5,18.68,50,-0.304978,0.01365,0011171700,5,30,12.5
61784,72510,2011/05/16 06:00:12,41.7512,9.4412,0.5,18.6,50,-0.306443,0.023328,0011171700,4,28,12.5
61784,72510,2011/05/16 06:30:11,41.7460,9.4419,0.5,18.68,50,-0.321408,0.03228,0011171700,5,28,12.5
61784,72510,2011/05/16 07:00:12,41.7404,9.4429,0.5,18.68,50,-0.345748,0.046067,0011171700,5,31,12.5
61784,72510,2011/05/16 07:30:35,41.7349,9.4433,0.5,18.68,50,-0.335476,0.018206,0011171700,4,31,12.5
61784,72510,2011/05/16 08:00:11,41.7293,9.4436,0.5,18.76,50,-0.350615,0.014017,0011171700,4,31,12.5
61784,72510,2011/05/16 08:30:12,41.7238,9.4439,0.5,18.84,50,-0.339574,0.013824,0011171700,4,31,12.5
61784,72510,2011/05/16 09:00:11,41.7238,9.4439,0.5,18.84,50,0,0,0011171700,4,31,12.5
61784,72510,2011/05/16 09:30:11,41.7183,9.4439,0.5,18.84,50,-0.339762,0,0011171700,4,31,12.5
61784,72510,2011/05/16 10:00:11,41.7071,9.4432,0.5,19.16,50,-0.69188,-0.03228,0011171700,1,31,12.5
61784,72510,2011/05/16 10:30:11,41.7019,9.4425,0.5,19.4,50,-0.32123,-0.032284,0011171700,3,31,12.5
61784,72510,2011/05/16 11:00:11,41.6969,9.4417,0.5,19.4,50,-0.308875,-0.036899,0011171700,4,28,12.5
61784,72510,2011/05/16 11:30:15,41.6914,9.4411,0.5,19.08,50,-0.339009,-0.027615,0011171700,4,30,12.5
61784,72510,2011/05/16 12:00:11,41.6868,9.4406,0.5,19.16,50,-0.284798,-0.023117,0011171700,4,33,12.5
61784,72510,2011/05/16 12:30:11,41.6821,9.4400,0.5,19.4,50,-0.290342,-0.027681,0011171700,7,33,12.5
61784,72510,2011/05/16 13:00:11,41.6777,9.4392,0.5,19.32,50,-0.27181,-0.03691,0011171700,7,28,12.5
61784,72510,2011/05/16 13:30:11,41.6735,9.4385,0.5,19.24,50,-0.259455,-0.032299,0011171700,4,28,12.5
61784,72510,2011/05/16 14:00:11,41.6694,9.4381,0.5,19.16,50,-0.253277,-0.018458,0011171700,4,30,12.4
61784,72510,2011/05/16 14:30:33,41.6653,9.4374,0.5,19.24,50,-0.250219,-0.031913,0011171700,4,28,12.4
61784,72510,2011/05/16 15:00:10,41.6614,9.4367,0.5,19.32,50,-0.244041,-0.032723,0011171700,4,22,12.5
61784,72510,2011/05/16 15:30:10,41.6614,9.4367,0.5,19.32,50,0,0,0011171700,3,22,12.5
61784,72510,2011/05/16 16:00:11,41.6530,9.4352,0.5,19.24,50,-0.518622,-0.069193,0011171700,4,25,12.5
61784,72510,2011/05/16 16:30:10,41.6487,9.4344,0.5,19.16,50,-0.26578,-0.036948,0011171700,4,25,12.5
61784,72510,2011/05/16 17:00:16,41.6446,9.4336,0.5,19.16,50,-0.252436,-0.036807,0011171700,5,22,12.5
61784,72510,2011/05/16 17:30:34,41.6407,9.4332,0.5,19.24,50,-0.238537,-0.018283,0011171700,5,22,12.5
61784,72510,2011/05/16 18:00:12,41.6371,9.4325,0.5,19.16,50,-0.225142,-0.032717,0011171700,1,22,12.5
61784,72510,2011/05/16 18:30:11,41.6339,9.4319,0.5,19,50,-0.19779,-0.027717,0011171700,1,22,12.5
61784,72510,2011/05/16 19:00:35,41.6308,9.4311,0.5,18.92,50,-0.188983,-0.036452,0011171700,1,20,12.5
61784,72510,2011/05/16 19:30:13,41.6277,9.4305,0.5,18.76,50,-0.193872,-0.028047,0011171700,1,19,12.5
61784,72510,2011/05/16 20:00:13,41.6248,9.4301,0.5,18.76,50,-0.179147,-0.018471,0011171700,1,19,12.5
61784,72510,2011/05/16 20:30:18,41.6218,9.4294,0.5,18.84,50,-0.184812,-0.032235,0011171700,1,19,12.5
61784,72510,2011/05/16 21:00:19,41.6191,9.4288,0.5,18.84,50,-0.1667,-0.027693,0011171700,1,17,12.5
61784,72510,2011/05/16 21:30:52,41.6164,9.4283,0.5,18.76,50,-0.16379,-0.022676,0011171700,3,17,12.5
61784,72510,2011/05/16 22:00:11,41.6140,9.4281,0.5,18.76,50,-0.151716,-0.009452,0011171700,3,15,12.5
61784,72510,2011/05/16 22:30:11,41.6117,9.4280,0.5,18.68,50,-0.142082,-0.004619,0011171700,3,15,12.5
61784,72510,2011/05/16 23:00:12,41.6095,9.4283,0.5,18.68,50,-0.135829,0.013849,0011171700,3,15,12.5
61784,72510,2011/05/16 23:30:11,41.6073,9.4286,0.5,18.68,50,-0.13598,0.013864,0011171700,3,14,12.5
61784,72510,2011/05/17 00:00:11,41.6053,9.4287,0.5,18.76,50,-0.12355,0.004619,0011171700,3,14,12.5
61784,72510,2011/05/17 00:30:34,41.6032,9.4291,0.5,18.76,50,-0.128091,0.018244,0011171700,3,14,12.5
61784,72510,2011/05/17 01:00:11,41.6009,9.4297,0.5,18.68,50,-0.143921,0.028075,0011171700,1,15,12.5
61784,72510,2011/05/17 01:30:34,41.5985,9.4300,0.5,18.68,50,-0.146389,0.013684,0011171700,1,15,12.5
61784,72510,2011/05/17 02:00:11,41.5960,9.4305,0.5,18.68,50,-0.156436,0.023398,0011171700,1,17,12.5
61784,72510,2011/05/17 02:30:11,41.5960,9.4305,0.5,18.68,50,0,0,0011171700,4,17,12.5
61784,72510,2011/05/17 03:00:11,41.5933,9.4308,0.5,18.6,50,-0.166792,0.01386,0011171700,4,17,12.5
61784,72510,2011/05/17 03:30:11,41.5879,9.4314,0.5,18.52,50,-0.333585,0.027721,0011171700,3,19,12.5
61784,72510,2011/05/17 04:00:11,41.5879,9.4314,0.5,18.52,50,0,0,0011171700,3,19,12.5
61784,72510,2011/05/17 04:30:11,41.5826,9.4317,0.5,18.44,50,-0.327407,0.013862,0011171700,1,17,12.5
61784,72510,2011/05/17 05:00:11,41.5798,9.4315,0.5,18.44,50,-0.17297,-0.009242,0011171700,4,20,12.5
61784,72510,2011/05/17 05:30:11,41.5770,9.4313,0.5,18.44,50,-0.17297,-0.009242,0011171700,4,20,12.5
61784,72510,2011/05/17 06:00:35,41.5742,9.4312,0.5,18.36,50,-0.170694,-0.00456,0011171700,4,15,12.5
61784,72510,2011/05/17 06:30:11,41.5718,9.4307,0.5,18.44,50,-0.150263,-0.02342,0011171700,4,15,12.5
61784,72510,2011/05/17 07:00:12,41.5694,9.4302,0.5,18.44,50,-0.148178,-0.023095,0011171700,4,20,12.5
61784,72510,2011/05/17 07:30:11,41.5668,9.4297,0.5,18.44,50,-0.160704,-0.023122,0011171700,4,20,12.5
61784,72510,2011/05/17 08:00:11,41.5644,9.4293,0.5,18.52,50,-0.14826,-0.018488,0011171700,3,14,12.5
61784,72510,2011/05/17 08:30:11,41.5622,9.4289,0.5,18.6,50,-0.135905,-0.018489,0011171700,3,14,12.5
61784,72510,2011/05/17 09:00:11,41.5600,9.4283,0.5,18.68,50,-0.135905,-0.027734,0011171700,1,15,12.3
61784,72510,2011/05/17 09:30:20,41.5580,9.4281,0.5,18.92,50,-0.122935,-0.009199,0011171700,1,15,12.3
61784,72510,2011/05/17 10:00:20,41.5580,9.4281,0.5,18.92,50,0,0,0011171700,1,15,12.3
61784,72510,2011/05/17 10:30:11,41.5540,9.4280,0.5,19.24,50,-0.248342,-0.004646,0011171700,3,17,12.5
61784,72510,2011/05/17 11:00:12,41.5521,9.4280,0.5,19.4,50,-0.117307,0,0011171700,3,20,12.5
61784,72510,2011/05/17 11:30:12,41.5521,9.4280,0.5,19.4,50,0,0,0011171700,1,20,12.5
61784,72510,2011/05/17 12:00:11,41.5502,9.4281,0.5,19.64,50,-0.117438,0.004626,0011171700,1,19,12.5
61784,72510,2011/05/17 12:30:11,41.5468,9.4283,0.5,19.8,50,-0.210035,0.009246,0011171700,3,15,12.5
61784,72510,2011/05/17 13:00:12,41.5451,9.4289,0.5,19.96,50,-0.104959,0.027725,0011171700,3,15,12.5
61784,72510,2011/05/17 13:30:12,41.5451,9.4289,0.5,19.96,50,0,0,0011171700,3,15,12.5
61784,72510,2011/05/17 14:00:35,41.5436,9.4291,0.5,20.12,50,-0.091493,0.00913,0011171700,3,17,12.5
61784,72510,2011/05/17 14:30:11,41.5419,9.4295,0.5,20.28,50,-0.106437,0.018744,0011171700,1,17,12.5
61784,72510,2011/05/17 15:00:11,41.5401,9.4293,0.5,20.04,50,-0.111195,-0.009247,0011171700,1,17,12.5
61784,72510,2011/05/17 15:30:12,41.5366,9.4287,0.5,19.88,50,-0.216092,-0.027728,0011171700,1,14,12.5
61784,72510,2011/05/17 16:00:11,41.5351,9.4279,0.5,19.72,50,-0.092714,-0.037013,0011171700,1,14,12.5
61784,72510,2011/05/17 16:30:23,41.5334,9.4271,0.5,19.64,50,-0.104322,-0.036749,0011171700,3,14,12.5
61784,72510,2011/05/17 17:00:30,41.5318,9.4260,0.5,19.4,50,-0.098457,-0.050671,0011171700,3,14,12.5
61784,72510,2011/05/17 17:30:59,41.5303,9.4249,0.5,19.24,50,-0.091193,-0.050062,0011171700,4,14,12.5
61784,72510,2011/05/17 18:00:11,41.5291,9.4238,0.5,19,50,-0.076161,-0.052264,0011171700,4,12,12.5
61784,72510,2011/05/17 18:30:11,41.5277,9.4226,0.5,18.92,50,-0.086485,-0.055496,0011171700,1,14,12.5
61784,72510,2011/05/17 19:00:13,41.5263,9.4216,0.5,18.84,50,-0.086389,-0.046196,0011171700,1,20,12.5
61784,72510,2011/05/17 19:30:13,41.5250,9.4205,0.5,18.84,50,-0.080307,-0.050873,0011171700,4,20,12.5
61784,72510,2011/05/17 20:00:17,41.5238,9.4193,0.5,18.76,50,-0.073966,-0.055376,0011171700,4,22,12.5
61784,72510,2011/05/17 20:30:14,41.5227,9.4182,0.5,18.76,50,-0.068066,-0.05096,0011171700,4,22,12.5
61784,72510,2011/05/17 21:00:34,41.5217,9.4172,0.5,18.76,50,-0.061096,-0.045743,0011171700,4,20,12.5
61784,72510,2011/05/17 21:30:14,41.5208,9.4162,0.5,18.68,50,-0.056222,-0.046771,0011171700,3,20,12.5
61784,72510,2011/05/17 22:00:21,41.5198,9.4154,0.5,18.84,50,-0.061536,-0.036858,0011171700,1,20,12.5
61784,72510,2011/05/17 22:30:34,41.5189,9.4145,0.5,19,50,-0.055199,-0.041329,0011171700,3,20,12.5
61784,72510,2011/05/17 23:00:10,41.5181,9.4137,0.5,19.08,50,-0.050088,-0.037503,0011171700,3,20,12.5
61784,72510,2011/05/17 23:30:11,41.5171,9.4134,0.5,18.92,50,-0.061741,-0.013869,0011171700,3,20,12.5
61784,72510,2011/05/18 00:00:12,41.5161,9.4132,0.5,18.84,50,-0.061741,-0.009246,0011171700,1,20,12.5
61784,72510,2011/05/18 00:30:11,41.5150,9.4133,0.5,19,50,-0.06799,0.004628,0011171700,3,20,12.5
61784,72510,2011/05/18 01:00:12,41.5140,9.4134,0.5,18.92,50,-0.061741,0.004623,0011171700,3,19,12.5
61784,72510,2011/05/18 01:30:34,41.5130,9.4138,0.5,18.76,50,-0.061029,0.018279,0011171700,3,19,12.5
61784,72510,2011/05/18 02:00:11,41.5122,9.4141,0.5,18.76,50,-0.05006,0.014057,0011171700,3,15,12.5
61784,72510,2011/05/18 02:30:11,41.5114,9.4146,0.5,18.68,50,-0.04942,0.023129,0011171700,3,15,12.5
61784,72510,2011/05/18 03:00:11,41.5104,9.4154,0.5,18.68,50,-0.061775,0.037007,0011171700,4,15,12.5
61784,72510,2011/05/18 03:30:35,41.5095,9.4162,0.5,18.68,50,-0.054866,0.036521,0011171700,4,14,12.5
61784,72510,2011/05/18 04:00:12,41.5083,9.4174,0.5,18.68,50,-0.075089,0.056231,0011171700,7,12,12.5
61784,72510,2011/05/18 04:30:12,41.5070,9.4184,0.5,18.68,50,-0.080307,0.046261,0011171700,7,14,12.5
61784,72510,2011/05/18 05:00:13,41.5055,9.4198,0.5,18.6,50,-0.092611,0.064731,0011171700,3,15,12.5
61784,72510,2011/05/18 05:30:34,41.5042,9.4205,0.5,18.6,50,-0.079381,0.032011,0011171700,3,15,12.5
61784,72510,2011/05/18 06:00:12,41.5027,9.4217,0.5,18.6,50,-0.093809,0.056204,0011171700,3,15,12.5
61784,72510,2011/05/18 06:30:11,41.5013,9.4226,0.5,18.6,50,-0.086533,0.041662,0011171700,3,15,12.5
61784,72510,2011/05/18 07:00:12,41.4997,9.4234,0.5,18.52,50,-0.098785,0.036993,0011171700,1,17,12.5
61784,72510,2011/05/18 07:30:11,41.4979,9.4241,0.5,18.6,50,-0.111257,0.032405,0011171700,1,17,12.5
61784,72510,2011/05/18 08:00:11,41.4963,9.4244,0.5,18.52,50,-0.09884,0.013881,0011171700,4,20,12.5
61784,72510,2011/05/18 08:30:12,41.4950,9.4245,0.5,18.52,50,-0.080263,0.004624,0011171700,4,20,12.5
61784,72510,2011/05/18 09:00:35,41.4950,9.4245,0.5,18.52,50,0,0,0011171700,3,20,12.5
61784,72510,2011/05/18 09:30:11,41.4934,9.4242,0.5,18.52,50,-0.100176,-0.014069,0011171700,1,26,12.5
61784,72510,2011/05/18 10:00:11,41.4921,9.4248,0.5,18.68,50,-0.080307,0.027763,0011171700,1,26,12.5
61784,72510,2011/05/18 10:30:11,41.4879,9.4244,0.5,18.68,50,-0.259455,-0.01851,0011171700,1,25,12.5
61784,72510,2011/05/18 11:00:11,41.4861,9.4244,0.5,18.52,50,-0.111195,0,0011171700,3,25,12.5
61784,72510,2011/05/18 11:30:12,41.4841,9.4246,0.5,18.68,50,-0.123481,0.00925,0011171700,3,25,12.5
61784,72510,2011/05/18 12:00:12,41.4822,9.4248,0.5,18.6,50,-0.117372,0.009256,0011171700,1,22,12.5
61784,72510,2011/05/18 12:30:11,41.4804,9.4251,0.5,18.68,50,-0.111257,0.013892,0011171700,1,23,12.5
61784,72510,2011/05/18 13:00:13,41.4785,9.4254,0.5,18.68,50,-0.117242,0.013869,0011171700,5,31,12.5
61784,72510,2011/05/18 13:30:11,41.4766,9.4263,0.5,18.84,50,-0.117503,0.041701,0011171700,5,31,12.5
61784,72510,2011/05/18 14:00:11,41.4750,9.4266,0.5,18.92,50,-0.09884,0.013885,0011171700,3,30,12.5
61784,72510,2011/05/18 14:30:35,41.4734,9.4271,0.5,19.08,50,-0.097539,0.022838,0011171700,1,30,12.5
61784,72510,2011/05/18 15:00:12,41.4719,9.4278,0.5,19,50,-0.093862,0.03282,0011171700,1,28,12.5